User: anonymous
Location: The D'Auria's Ocala Star Observatory
(29.0276°N, 82.1742°W)
Time: 03:50:29
(UTC-04:00)
Language:

Abrixas rocket - Orbit

View from above orbital plane
View from above orbital plane
View from above satellite
View from above satellite

Ground track
Ground track

The orbit data is extracted from the following two-line orbital elements,

1 25723U 99022C   14113.90538331  .00014931  00000-0  51391-3 0  6350
2 25723 048.4249 080.5782 0018250 333.3542 055.4051 15.30003868828845
Epoch (UTC): 23 April 2014 21:43:45
Eccentricity: 0.0018250
inclination: 48.4249°
perigee height: 463 km
apogee height: 488 km
right ascension of ascending node: 80.5782°
argument of perigee: 333.3542°
revolutions per day: 15.30003868
mean anomaly at epoch: 55.4051°
orbit number at epoch: 82884

The dashed part of the orbit path shows where the satellite is in the earth's shadow,  

DLR